Location: Augustenthal
(51.7167°N, 10.2833°E)
Time: 08:20:55
(UTC+00:00)

Cosmos 1125 Rocket - Pass Details

Date: 18 May 2021
Orbit: 758 x 779 km, 74.0° (Epoch: 20 June)

Event Time Altitude Azimuth Distance (km) Brightness Sun altitude
Exits shadow 22:31:10 24° 208° (SSW) 1,527 4.6 -17.9°
Maximum altitude 22:34:20 84° 294° (WNW) 772 3.5 -18.0°
Drops below altitude 10° 22:39:35 10° 24° (NNE) 2,301 6.8 -18.1°
Sets 22:41:57 0° 25° (NNE) 3,230 7.7 -18.1°
